Henderson, MN (56044)

11:09 AM CST on November 22, 2014 (GMT -0600)
Faxon TWP | Change Station
CLOSE
Current Station
Personal Weather Station
Location: Belle Plaine, MN
Elevation: 958 ft
Nearby Weather Stations

Elev 958 ft 44.64 °N, 93.83 °W | Updated 1 minute ago

Fog
Fog
35.3 °F
Feels Like 35 °F
N
0.0
Wind Variable Wind from SSW
Gusts 8.0 mph

Today
High -- | Low -- °F
--% Chance of Precip.
Yesterday
High -- | Low -- °F
Precip. -- in
7:21 AM 4:42 PM
New Moon, 0% visible
Pressure 29.72 in
Visibility 1.0 miles
Clouds Overcast 300 ft
Windchill 35 °F
Dew Point 34 °F
Humidity 94%
Rainfall 0.00 in
Snow Depth Not available.
UV 0.0 out of 12
Pollen .10 out of 12
Air Quality Not available.
Flu Activity Not available.
METAR KGYL 221653Z AUTO 18008KT 1SM BR OVC003 02/02 A2972 RMK AO2 T00150015

More Conditions Fewer Conditions

Pressure 29.72 in
Visibility 1.0 miles
Clouds Overcast 300 ft
Windchill 35 °F
Dew Point 34 °F
Humidity 94%
Rainfall 0.00 in
Snow Depth Not available.
UV 0.0 out of 12
Pollen .10 out of 12
Air Quality Not available.
Flu Activity Not available.
METAR KGYL 221653Z AUTO 18008KT 1SM BR OVC003 02/02 A2972 RMK AO2 T00150015

More Conditions Fewer Conditions

10-Day Weather Forecast

Almanac

Astronomy

Nov. 22, 2014 Rise Set
Actual Time
Civil Twilight
Nautical Twilight
Astronomical Twilight
Moon
Length of Visible Light
Length of Day
Tomorrow will be .
, % of the Moon is Illuminated

Today's Extremes

State Highs State Lows

Community

WunderPhotos

Upload Photos

1,772,860 photos uploaded!

WunderBlogs® & News

Nearby

Air Quality

  Air Quality AQ Index Pollutant
Not available.

Snow Depth

Station Depth Elevation

Earthquake Activity

City Distance Mag. Time & Date
Minimum magnitude displayed is 2.5.

Coastal Water Temperatures

Place Temperature

Nearby Weather Stations